GW6225 Weather Reports


Display with metric or nautical units.
time (UTC)temp
F
wind
direction
speed
MPH
gust
MPH
rain 1hr
in
rain 24hr
in
rain mn
in
humidity
%
barometer
mb
20260502152045 68 57 1.0 2.0 0.00 0.00 0.00 70 1020.8
20260502151542 67 96 0.0 1.0 0.00 0.00 0.00 74 1020.8
20260502151040 66 58 2.0 3.0 0.00 0.00 0.00 74 1020.8
20260502150537 66 112 1.0 2.0 0.00 0.00 0.00 73 1021.0
20260502130422 58 135 2.0 3.0 0.00 0.00 0.00 91 1019.7
20260502123404 56 145 1.0 1.0 0.00 0.00 0.00 93 1019.4
20260502122902 56 146 0.0 0.0 0.00 0.00 0.00 93 1019.3
20260502122358 56 46 2.0 2.0 0.00 0.00 0.00 93 1019.2
20260502121856 55 157 0.0 1.0 0.00 0.00 0.00 93 1019.1
20260502121353 55 149 0.0 1.0 0.00 0.00 0.00 94 1019.1
20260502120851 55 137 1.0 1.0 0.00 0.00 0.00 94 1019.0
20260502120346 55 146 1.0 2.0 0.00 0.00 0.00 94 1018.9
20260502115844 55 112 0.0 0.0 0.00 0.00 0.00 94 1018.7
20260502115341 55 150 1.0 1.0 0.00 0.00 0.00 94 1018.5
20260502114837 55 124 0.0 1.0 0.00 0.00 0.00 94 1018.5
20260502114334 55 108 1.0 1.0 0.00 0.00 0.00 94 1018.3
20260502113831 55 140 0.0 0.0 0.00 0.00 0.00 94 1018.5
20260502113329 55 123 0.0 0.0 0.00 0.00 0.00 94 1018.4
20260502112827 55 130 1.0 1.0 0.00 0.00 0.00 94 1018.3
20260502112324 55 158 1.0 2.0 0.00 0.00 0.00 94 1018.1
20260502111822 55 122 0.0 1.0 0.00 0.00 0.00 94 1018.2
20260502111319 55 123 0.0 1.0 0.00 0.00 0.00 94 1018.0
20260502110816 55 146 0.0 0.0 0.00 0.00 0.00 94 1017.8
20260502110314 55 166 2.0 2.0 0.00 0.00 0.00 93 1018.0
20260502105812 55 125 0.0 1.0 0.00 0.00 0.00 93 1017.7
20260502105308 56 136 0.0 0.0 0.00 0.00 0.00 92 1017.8
20260502104806 56 177 1.0 1.0 0.00 0.00 0.00 91 1017.8
20260502104303 56 135 0.0 0.0 0.00 0.00 0.00 91 1017.7
20260502103800 56 97 0.0 1.0 0.00 0.00 0.00 92 1017.5
20260502103257 56 135 0.0 0.0 0.00 0.00 0.00 93 1017.6
20260502102755 56 136 0.0 0.0 0.00 0.00 0.00 94 1017.5
20260502102251 56 102 0.0 1.0 0.00 0.00 0.00 95 1017.4
20260502101749 56 122 0.0 0.0 0.00 0.00 0.00 95 1017.4
20260502101247 56 81 0.0 0.0 0.00 0.00 0.00 95 1017.2
20260502100745 56 124 0.0 1.0 0.00 0.00 0.00 94 1017.2
20260502100243 56 142 0.0 1.0 0.00 0.00 0.00 95 1017.0
20260502091217 56 172 2.0 2.0 0.00 0.00 0.00 94 1016.2
20260502090715 56 93 1.0 3.0 0.00 0.00 0.00 94 1016.4
20260502090211 56 93 1.0 1.0 0.00 0.00 0.00 94 1016.3
20260502071107 57 158 0.0 0.0 0.00 0.00 0.00 98 1016.2
20260502070605 57 118 0.0 0.0 0.00 0.00 0.00 98 1016.2
20260502065600 57 76 1.0 3.0 0.00 0.00 0.00 99 1015.9
20260502065058 57 52 1.0 1.0 0.00 0.00 0.00 99 1016.2
20260502064556 57 131 0.0 0.0 0.00 0.00 0.00 99 1015.9
20260502064053 57 98 1.0 1.0 0.00 0.00 0.00 99 1016.0
20260502063551 57 112 2.0 2.0 0.00 0.00 0.00 99 1016.0
20260502063048 57 130 0.0 0.0 0.00 0.00 0.00 99 1015.9
20260502062545 57 155 0.0 0.0 0.00 0.00 0.00 99 1016.1
20260502062043 57 144 0.0 0.0 0.00 0.00 0.00 99 1015.9
20260502061541 57 60 0.0 1.0 0.00 0.00 0.00 99 1015.9
20260502061038 57 104 1.0 1.0 0.00 0.00 0.00 99 1015.9
20260502060533 57 111 0.0 0.0 0.00 0.00 0.00 99 1015.8
20260502060030 57 229 1.0 2.0 0.00 0.00 0.00 99 1015.8
20260502055528 57 68 1.0 2.0 0.00 0.00 0.00 99 1016.1
20260502055026 57 158 1.0 2.0 0.00 0.00 0.00 99 1016.0
20260502054525 57 73 2.0 3.0 0.00 0.00 0.00 99 1016.0
20260502054021 57 95 1.0 3.0 0.00 0.00 0.00 99 1016.2
20260502053518 57 67 0.0 1.0 0.00 0.00 0.00 99 1016.2
20260502053016 57 82 1.0 1.0 0.00 0.00 0.00 99 1016.3
20260502052514 57 44 0.0 1.0 0.00 0.00 0.00 99 1016.2
20260502052012 57 51 2.0 5.0 0.00 0.00 0.00 99 1016.1
20260502051510 57 146 0.0 1.0 0.00 0.00 0.00 99 1016.1
20260502051007 57 121 4.0 5.0 0.00 0.00 0.00 99 1016.1
20260502050503 57 162 0.0 1.0 0.00 0.00 0.00 99 1016.1
20260502050000 57 148 0.0 0.0 0.00 0.00 0.00 99 1016.1
20260502045457 57 126 1.0 2.0 0.00 1.59 1.59 99 1016.3
20260502044954 57 59 2.0 3.0 0.00 1.59 1.59 99 1016.1
20260502044450 57 54 4.0 7.0 0.00 1.59 1.59 99 1016.1
20260502043947 57 123 0.0 0.0 0.00 1.59 1.59 99 1016.3
20260502043445 57 72 1.0 2.0 0.00 1.59 1.59 99 1016.1
20260502042944 57 311 2.0 3.0 0.00 1.59 1.59 99 1016.1
20260502042441 57 359 2.0 3.0 0.00 1.59 1.59 99 1016.1
20260502041938 57 129 2.0 5.0 0.00 1.59 1.59 99 1015.9
20260502041436 58 118 3.0 5.0 0.00 1.59 1.59 99 1016.0
20260502040933 58 138 2.0 3.0 0.00 1.59 1.59 99 1015.9
20260502040429 58 105 1.0 2.0 0.00 1.59 1.59 99 1016.1
20260502035926 58 110 0.0 1.0 0.00 1.59 1.59 99 1015.9
20260502035422 58 117 0.0 1.0 0.00 1.59 1.59 99 1015.5
20260502034920 58 139 2.0 5.0 0.00 1.59 1.59 99 1015.4
20260502034419 58 99 2.0 2.0 0.00 1.59 1.59 99 1015.4
20260502033917 59 108 1.0 2.0 0.00 1.59 1.59 99 1015.3
20260502033414 59 66 0.0 0.0 0.00 1.59 1.59 99 1015.1
20260502032910 59 140 0.0 1.0 0.00 1.59 1.59 99 1015.2
20260502032407 59 138 4.0 7.0 0.07 1.59 1.59 99 1014.9
20260502031904 59 90 0.0 1.0 0.07 1.59 1.59 99 1014.6
20260502031402 59 172 0.0 1.0 0.00 1.58 1.58 99 1014.4
20260502030900 59 166 0.0 1.0 0.00 1.58 1.58 99 1014.1
20260502030358 59 110 0.0 1.0 0.00 1.58 1.58 99 1014.2
20260502025855 59 116 0.0 0.0 0.05 1.58 1.58 99 1014.4
20260502025353 59 112 1.0 2.0 0.12 1.58 1.58 99 1014.2
20260502024850 59 120 0.0 0.0 0.07 1.57 1.57 99 1014.2
20260502024348 59 105 0.0 1.0 0.00 1.56 1.56 99 1014.1
20260502023846 59 64 0.0 1.0 0.00 1.56 1.56 99 1014.7
20260502023343 59 66 2.0 3.0 0.00 1.56 1.56 99 1014.7
20260502022841 59 128 0.0 0.0 0.00 1.56 1.56 99 1014.5
20260502022337 60 69 3.0 5.0 0.00 1.56 1.56 99 1014.2
20260502021834 60 125 1.0 2.0 0.00 1.56 1.56 99 1014.4
20260502021331 60 144 0.0 0.0 0.05 1.56 1.56 99 1014.2
20260502020829 60 156 1.0 2.0 0.05 1.56 1.56 99 1014.1
20260502020326 60 136 0.0 1.0 0.00 1.55 1.55 99 1014.0
20260502015823 60 99 1.0 2.0 0.00 1.55 1.55 99 1013.8
20260502015320 60 135 0.0 0.0 0.00 1.55 1.55 99 1014.0
20260502014817 60 136 0.0 0.0 0.12 1.55 1.55 99 1013.9
20260502014314 60 153 0.0 0.0 0.24 1.55 1.55 99 1013.6
20260502013810 60 154 0.0 0.0 0.24 1.53 1.53 99 1013.4
20260502013306 60 152 0.0 0.0 0.19 1.51 1.51 99 1013.6
20260502012803 60 148 0.0 1.0 0.07 1.49 1.49 99 1013.4
20260502012300 60 143 1.0 2.0 0.00 1.48 1.48 99 1013.0
20260502011758 60 151 1.0 1.0 0.00 1.48 1.48 99 1012.4
20260502011254 60 152 0.0 0.0 0.07 1.48 1.48 99 1011.9
20260502010751 60 114 0.0 0.0 0.19 1.48 1.48 99 1011.9
20260502010247 60 125 0.0 1.0 0.28 1.47 1.47 99 1012.1
20260502005744 60 75 0.0 1.0 0.35 1.45 1.45 99 1012.0
20260502005242 60 154 1.0 2.0 0.35 1.42 1.42 99 1012.2
20260502004739 60 78 2.0 3.0 0.42 1.39 1.39 99 1012.6
20260502004235 60 85 0.0 1.0 0.38 1.36 1.36 99 1012.4
20260502003733 60 182 1.0 2.0 0.24 1.33 1.33 99 1011.8
20260502003230 60 16 2.0 5.0 0.12 1.30 1.30 99 1011.3
20260502002726 61 199 0.0 1.0 0.00 1.28 1.28 99 1011.3
20260502002224 61 86 2.0 2.0 0.05 1.28 1.28 99 1011.2
20260502001720 61 108 1.0 1.0 0.05 1.28 1.28 99 1010.9
20260502001219 61 133 3.0 5.0 0.00 1.27 1.27 99 1010.3
20260502000716 61 82 3.0 5.0 0.00 1.27 1.27 99 1010.5
20260502000214 62 161 0.0 1.0 0.00 1.27 1.27 99 1010.9
20260501235709 62 113 3.0 8.0 0.07 1.27 1.27 99 1011.4
20260501235205 62 50 0.0 0.0 0.07 1.27 1.27 99 1011.3
20260501234701 63 135 0.0 0.0 0.12 1.26 1.26 99 1011.1
20260501234159 63 61 1.0 1.0 0.12 1.26 1.26 99 1010.4
20260501233657 63 129 0.0 1.0 0.00 1.24 1.24 99 1010.4
20260501233153 63 132 0.0 1.0 0.05 1.24 1.24 99 1010.2
20260501232649 63 118 0.0 1.0 0.05 1.24 1.24 99 1010.1
20260501232147 63 143 1.0 1.0 0.07 1.23 1.23 99 1010.3
20260501231645 63 80 0.0 1.0 0.14 1.23 1.23 99 1009.7
20260501231143 63 162 0.0 0.0 0.12 1.22 1.22 99 1010.0
20260501230641 63 100 0.0 1.0 0.24 1.21 1.21 99 1009.8
20260501230139 63 75 1.0 2.0 0.35 1.20 1.20 99 1010.3
20260501225636 63 123 0.0 1.0 0.17 1.17 1.17 99 1010.4
20260501225132 63 119 0.0 0.0 0.00 1.14 1.14 99 1010.5
20260501224629 63 104 0.0 1.0 0.00 1.14 1.14 99 1010.5
20260501224126 63 154 0.0 1.0 0.00 1.14 1.14 99 1010.4
20260501223623 63 91 0.0 0.0 0.07 1.14 1.14 99 1010.7
20260501223119 63 72 1.0 2.0 0.12 1.14 1.14 99 1011.4
20260501222615 63 134 0.0 0.0 0.05 1.13 1.13 99 1011.7
20260501222112 63 102 0.0 0.0 0.00 1.12 1.12 99 1011.7
20260501221609 63 136 1.0 3.0 0.07 1.12 1.12 99 1011.5
20260501221107 63 70 0.0 0.0 0.07 1.12 1.12 99 1011.3
20260501220605 63 120 0.0 0.0 0.05 1.11 1.11 99 1011.1
20260501220101 63 166 1.0 1.0 0.05 1.11 1.11 99 1011.1
20260501215558 63 79 1.0 1.0 0.07 1.10 1.10 99 1010.7
20260501215053 63 84 0.0 1.0 0.19 1.10 1.10 99 1010.1
20260501214548 63 125 0.0 0.0 0.31 1.09 1.09 99 1010.3
20260501214044 63 65 0.0 1.0 0.24 1.07 1.07 99 1010.0
20260501213541 63 147 1.0 1.0 0.24 1.04 1.04 99 1011.0
20260501213037 63 91 0.0 1.0 0.24 1.03 1.03 99 1010.5
20260501212533 63 70 1.0 2.0 0.24 1.00 1.00 99 1010.1
20260501212031 63 104 0.0 1.0 0.54 0.99 0.99 99 1011.4
20260501211527 63 153 1.0 1.0 0.47 0.96 0.96 99 1011.0
20260501211026 63 113 0.0 0.0 0.24 0.89 0.89 99 1010.7
20260501210521 63 152 0.0 0.0 0.31 0.87 0.87 99 1010.9
20260501210018 63 111 0.0 0.0 0.31 0.85 0.85 99 1010.5
20260501205515 63 71 0.0 0.0 0.12 0.82 0.82 99 1010.1
20260501205013 64 65 0.0 1.0 0.05 0.80 0.80 99 1010.2
20260501204508 64 148 0.0 0.0 0.12 0.80 0.80 99 1010.2
20260501204005 64 160 1.0 2.0 0.19 0.79 0.79 99 1010.0
20260501203501 64 79 0.0 0.0 0.28 0.78 0.78 99 1009.4
20260501202959 64 116 1.0 2.0 0.17 0.76 0.76 99 1009.4
20260501202455 64 142 0.0 1.0 0.00 0.73 0.73 99 1010.7
20260501201952 64 177 1.0 1.0 0.07 0.73 0.73 99 1011.0
20260501201450 64 57 1.0 2.0 0.07 0.73 0.73 99 1009.6
20260501200946 64 155 2.0 3.0 0.12 0.72 0.72 99 1009.0
20260501200443 64 93 0.0 1.0 0.12 0.72 0.72 99 1008.7
20260501195940 64 80 0.0 0.0 0.00 0.70 0.70 99 1009.4
20260501195437 64 66 1.0 2.0 0.07 0.70 0.70 99 1009.9
20260501194933 65 61 0.0 1.0 0.07 0.70 0.70 99 1010.1
20260501194429 65 153 0.0 0.0 0.05 0.69 0.69 99 1010.3
20260501193925 65 88 0.0 0.0 0.17 0.69 0.69 99 1010.2
20260501193423 65 82 0.0 1.0 0.12 0.67 0.67 99 1009.6
20260501192921 65 77 0.0 0.0 0.07 0.66 0.66 99 1009.5
20260501192418 65 120 0.0 0.0 0.05 0.65 0.65 99 1009.8
20260501191915 65 134 0.0 0.0 0.12 0.65 0.65 99 1009.8
20260501191412 66 74 0.0 1.0 0.07 0.64 0.64 99 1009.9
20260501190910 66 105 0.0 0.0 0.00 0.63 0.63 99 1010.2
20260501190406 66 74 0.0 0.0 0.00 0.63 0.63 99 1009.9
20260501185905 65 144 2.0 3.0 0.00 0.63 0.63 99 1010.3
20260501185402 66 148 0.0 0.0 0.05 0.63 0.63 99 1010.4
20260501184858 66 74 0.0 0.0 0.17 0.63 0.63 99 1010.3
20260501184354 66 145 0.0 1.0 0.19 0.62 0.62 99 1010.4
20260501183849 66 94 1.0 2.0 0.07 0.60 0.60 99 1010.2
20260501183347 66 81 0.0 0.0 0.00 0.59 0.59 99 1010.2
20260501182843 66 153 0.0 1.0 0.00 0.59 0.59 99 1010.2
20260501182340 66 95 0.0 0.0 0.00 0.59 0.59 99 1010.2
20260501181837 66 50 0.0 1.0 0.00 0.59 0.59 99 1010.2
20260501181334 65 130 0.0 0.0 0.00 0.59 0.59 99 1010.0
20260501180832 65 77 1.0 2.0 0.00 0.59 0.59 99 1010.0
20260501180327 65 164 0.0 1.0 0.00 0.59 0.59 99 1010.0
20260501175825 65 84 0.0 0.0 0.00 0.59 0.59 99 1010.2
20260501175321 65 75 0.0 1.0 0.00 0.59 0.59 99 1010.4
20260501174818 65 126 0.0 1.0 0.00 0.59 0.59 99 1011.0
20260501174315 64 144 0.0 1.0 0.00 0.59 0.59 99 1010.9
20260501173814 65 152 0.0 0.0 0.00 0.59 0.59 99 1010.9
20260501173311 65 86 0.0 0.0 0.00 0.59 0.59 99 1011.2
20260501172806 64 72 0.0 1.0 0.00 0.59 0.59 99 1011.1
20260501172305 64 152 2.0 3.0 0.00 0.59 0.59 99 1011.1
20260501171757 64 69 1.0 1.0 0.12 0.59 0.59 99 1011.3
20260501171254 64 178 0.0 1.0 0.73 0.59 0.59 99 1011.5
20260501170751 64 119 0.0 0.0 1.21 0.57 0.57 99 1011.0
20260501170248 64 152 0.0 1.0 0.90 0.47 0.47 99 1012.8
20260501165745 65 68 2.0 3.0 0.35 0.37 0.37 99 1013.5
20260501165243 66 326 2.0 2.0 0.31 0.33 0.33 99 1012.3
20260501164741 66 149 0.0 1.0 0.19 0.31 0.31 99 1011.0
20260501164237 66 81 0.0 1.0 0.05 0.28 0.28 99 1010.8
20260501163733 66 144 1.0 2.0 0.05 0.28 0.28 99 1010.6
20260501163231 66 113 0.0 1.0 0.07 0.27 0.27 99 1010.7
20260501162727 66 103 0.0 1.0 0.12 0.27 0.27 99 1010.9
20260501162223 65 91 0.0 0.0 0.05 0.26 0.26 99 1010.9
20260501161721 65 87 0.0 2.0 0.00 0.25 0.25 99 1011.5
20260501161218 65 122 0.0 0.0 0.00 0.25 0.25 99 1011.6
20260501160714 65 60 0.0 0.0 0.00 0.25 0.25 99 1011.8
20260501160211 65 164 0.0 0.0 0.00 0.25 0.25 99 1011.7
20260501155708 66 155 0.0 1.0 0.00 0.25 0.25 99 1011.5
20260501155205 66 135 0.0 0.0 0.00 0.25 0.25 99 1011.3
20260501154702 66 96 0.0 0.0 0.00 0.25 0.25 99 1011.5